Location: Dresden
(51.0483°N, 13.7137°E)
Time: 14:27:16
(UTC+01:00)

ISS - Pass Details

Date: 08 January 2018
Orbit: 402 x 406 km, 51.6° (Epoch: 16 January)

Event Time Altitude Azimuth Distance (km) Brightness Sun altitude
Exits shadow 05:07:49 22° 82° (E) 944 -1.3 -27.0°
Drops below altitude 10° 05:09:07 10° 85° (E) 1,467 0.0 -26.8°
Sets 05:11:13 0° 86° (E) 2,329 1.3 -26.5°
